Regional Weather Roundup
Issued by NWS

Home | Current Version | Previous Version | Graphics & Text | Print | Product List | Glossary Off
Versions: 1 2 3 4 5 6 7 8 9 10 11 12 13 14 15 16 17 18 19 20 21 22 23 24 25 26 27 28 29 30 31 32 33 34 35 36 37 38 39 40 41 42 43 44 45 46 47 48 49 50

000
ASUS43 KTOP 240308
RWRKS

WEATHER ROUNDUP FOR KANSAS
NATIONAL WEATHER SERVICE GOODLAND KS
1000 PM CDT FRI SEP 23 2016

NOTE:  "FAIR" INDICATES FEW OR NO CLOUDS BELOW 12,000 FEET WITH NO
SIGNIFICANT WEATHER AND/OR OBSTRUCTIONS TO VISIBILITY.

KSZ001>006-013>018-027>032-041>047-240400-
NORTHWEST KANSAS

CITY           SKY/WX    TMP DP  RH WIND       PRES   REMARKS
GOODLAND       CLEAR     73  55  53 SE20G31   29.82R
HAYS           CLEAR     75  55  50 SE9       29.88R
HILL CITY      CLEAR     75  59  57 SE12      29.85S
RUSSELL        CLEAR     74  60  61 SE13      29.87S
$$

KSZ061>065-074>080-084>089-240400-
SOUTHWEST KANSAS

CITY           SKY/WX    TMP DP  RH WIND       PRES   REMARKS
DODGE CITY     CLEAR     76  62  62 S17       29.90R
ELKHART          N/A     75  57  53 SE17        N/A
GARDEN CITY    CLEAR     75  60  59 SE21G29   29.87R
GREAT BEND     CLEAR     79  63  57 SE16      29.89R
LIBERAL        CLEAR     77  61  57 SE21G28   29.90R
PRATT          CLEAR     75  64  67 S13       29.92R
$$

KSZ066>073-081>083-090>101-240400-
SOUTHEAST KANSAS

CITY           SKY/WX    TMP DP  RH WIND       PRES   REMARKS
CHANUTE        CLEAR     74  66  76 E8        29.98R
COFFEYVILLE    CLEAR     77  66  68 SE9       29.97R
HUTCHINSON     CLEAR     76  66  71 SE13      29.92R
MEDICINE LODGE   N/A     79  66  64 S12G18    29.91R
NEWTON         CLEAR    N/A N/A N/A SE12      29.95R
PARSONS        CLEAR     78  64  61 VRB6      29.98S
WICHITA INTL   CLEAR     78  67  68 SE10      29.93R
WICHITA JABRA  CLEAR     75  66  73 SE10      29.94R
WICHITA MCCONL CLEAR     76  66  70 S9        29.94R
WINFIELD       CLEAR     76  67  73 SE7       29.96R
$$

KSZ007>012-019>026-033>040-048>060-102>105-240400-
NORTHEAST KANSAS

CITY           SKY/WX    TMP DP  RH WIND       PRES   REMARKS
CONCORDIA      PTCLDY    74  65  73 SE13      29.92R
EMPORIA        PTCLDY    73  65  75 SE10      29.97R
LAWRENCE       CLEAR     72  67  84 SE6       29.98R
MANHATTAN      CLEAR     77  64  64 SE10      29.94R
MARYSVILLE     CLEAR     73  63  68 SE9       29.95R
OLATHE IND     CLEAR     74  65  73 SE7       30.00R
OLATHE EXE     CLEAR     72  65  78 SE6       30.00S
SALINA         MOCLDY    79  64  60 SE15      29.91R
TOPEKA BILLARD CLEAR     73  66  78 SE7       29.97R
TOPEKA FORBES  CLEAR     72  66  81 SE6       29.98R
$$




USA.gov is the U.S. government's official web portal to all federal, state and local government web resources and services.